Northeast Philadelphia, PA

2:04 AM EDT on April 04, 2020 (GMT -0400)
Northeast Philadelphia

Weather History for KPNE - January, 2020

Change the Weather History Date:

Sunday, January 19, 2020

  Actual Average Record
Temperature  
Mean Temperature 36 °F -  
Max Temperature 45 °F 34 °F 50 °F (1999)
Min Temperature 28 °F 21 °F 7 °F (1997)
Degree Days  
Heating Degree Days 28    
Moisture  
Dew Point 26 °F    
Average Humidity 64    
Maximum Humidity 87    
Minimum Humidity 43    
Precipitation  
Precipitation 0.03 in - - ()
Sea Level Pressure  
Sea Level Pressure 29.84 in    
Wind  
Wind Speed 10 mph ()    
Max Wind Speed 22 mph    
Max Gust Speed 32 mph    
Visibility 9.8 miles    
Events      
Averages and records for this station are not official NWS values.
T = Trace of Precipitation, MM = Missing Value Source: Averaged Metar Reports

Daily Weather History Graph

Daily Weather History Graph

Search for Another Location

Airport or City:

Astronomy

Jan. 19, 2020 Rise Set
Actual Time 7:18 AM EST 5:03 PM EST
Civil Twilight 6:49 AM EST 5:32 PM EST
Nautical Twilight 6:15 AM EST 6:05 PM EST
Astronomical Twilight 5:43 AM EST 6:38 PM EST
Moon 2:16 AM EST (1/19) 12:51 PM EST (1/19)
Length of Visible Light 10h 43m
Length of Day
9h 44m
Waning Crescent, 27% of the Moon is Illuminated
Jan 19
Waning Crescent
Jan 24
New
Feb 1
First Quarter
Feb 9
Full
Feb 15
Last Quarter

Hourly Weather History & Observations

Time (EST) Temp. Windchill Dew Point Humidity Pressure Visibility Wind Dir Wind Speed Gust Speed Precip Events Conditions
12:54 AM 39.9 °F 31.8 °F 35.1 °F 83% 29.73 in 10.0 mi SW 15.0 mph 23.0 mph N/A   Overcast
1:54 AM 39.9 °F 34.5 °F 36.0 °F 86% 29.74 in 10.0 mi West 8.1 mph - 0.00 in   Overcast
4:50 AM 39.2 °F 35.9 °F 35.6 °F 87% 29.73 in 10.0 mi West 4.6 mph - N/A   Overcast
4:54 AM 39.0 °F 35.7 °F 35.1 °F 86% 29.73 in 10.0 mi West 4.6 mph - N/A   Overcast
5:18 AM 39.0 °F 34.8 °F 35.1 °F 86% 29.74 in 10.0 mi West 5.8 mph - N/A   Overcast
5:28 AM 37.9 °F 34.4 °F 34.0 °F 86% 29.73 in 10.0 mi WNW 4.6 mph - N/A   Overcast
6:54 AM 37.0 °F 33.3 °F 33.1 °F 86% 29.75 in 9.0 mi SW 4.6 mph - N/A   Partly Cloudy
7:54 AM 37.0 °F 33.3 °F 33.1 °F 86% 29.76 in 8.0 mi WSW 4.6 mph - N/A   Clear
8:54 AM 41.0 °F 32.8 °F 30.9 °F 67% 29.78 in 10.0 mi WNW 16.1 mph 24.2 mph N/A   Clear
9:59 AM 43.0 °F 34.5 °F 28.0 °F 56% 29.80 in 10.0 mi WNW 19.6 mph 32.2 mph N/A   Clear
10:54 AM 45.0 °F 39.3 °F 27.0 °F 49% 29.82 in 10.0 mi WNW 11.5 mph 24.2 mph N/A   Clear
11:54 AM 45.0 °F 38.5 °F 25.0 °F 46% 29.83 in 10.0 mi WNW 13.8 mph 29.9 mph N/A   Mostly Cloudy
12:54 PM 42.1 °F 35.2 °F 23.0 °F 47% 29.83 in 10.0 mi WNW 12.7 mph 24.2 mph N/A   Mostly Cloudy
1:54 PM 43.0 °F 34.5 °F 21.9 °F 43% 29.83 in 10.0 mi West 19.6 mph 28.8 mph N/A   Scattered Clouds
2:54 PM 39.9 °F 30.0 °F 19.9 °F 45% 29.86 in 10.0 mi WNW 21.9 mph 27.6 mph N/A   Mostly Cloudy
3:54 PM 39.0 °F 28.8 °F 18.0 °F 43% 29.89 in 10.0 mi WNW 21.9 mph 28.8 mph N/A   Clear
6:54 PM 32.0 °F 22.5 °F 14.0 °F 48% 30.00 in 10.0 mi WNW 12.7 mph 20.7 mph N/A   Clear
8:54 PM 30.0 °F 18.7 °F 12.9 °F 49% 30.04 in 10.0 mi WNW 16.1 mph - N/A   Clear
9:54 PM 28.9 °F 18.2 °F 12.0 °F 49% 30.05 in 10.0 mi NW 13.8 mph 24.2 mph N/A   Clear
10:54 PM 28.0 °F 17.0 °F 12.0 °F 51% 30.06 in 10.0 mi WNW 13.8 mph - N/A   Clear